www.pogodaiklimat.ru

Погода и климат >> Архив погоды >> Индия >> Западная Бенгалия >> Даймонд Харбор


ПОГОДА в Даймонд Харбор

  • Прогноз погоды в Даймонд Харбор
  • Монитор погоды в Даймонд Харбор

АРХИВ ПОГОДЫ в Даймонд Харбор

Время (UTC), дата Ветер
(напр.,м/с)
 
Видим.   Явления Облачность Т
(С)
Тd
(С)
f
(%)
Тe
(С)
Тes
(С)
Комфортность P
(гПа)
Po
(гПа)
Тmin
(С)
Tmax
(С)
R
(мм)
R24
(мм)
S
(см)
03 11.06 Ю 0 4000 м 3/3 1000 м
[Sc diur, vesp]
+31.6 +29.5 89 +57 +68 опасность
перегрева
1001.9 1001.1 +29.2
06 11.06 Ю 0 4000 м 4/3 1000 м
[Sc diur, vesp Ac trans]
+36.2 +31.7 78 +70 +89 опасность
перегрева
1000.4 999.6
09 11.06 Ю 0 4000 м 6/5 1000 м
[Sc diur, vesp Ac trans]
+35.6 +31.0 77 +66 +74 опасность
перегрева
998.7 997.9
12 11.06 Ю 0 4000 м 1/1 1000 м
[Sc diur, vesp]
+34.0 +30.7 83 +64 +64 опасность
перегрева
998.2 997.4 +36.7
03 12.06 штиль 0 4000 м 8/4 1000 м
[Sc diur, vesp Ac trans]
+32.4 +30.6 90 +61 +67 опасность
перегрева
1001.1 1000.3 +28.8
06 12.06 Ю 0 4000 м 5/5 1000 м
[Sc diur, vesp]
+35.4 +32.3 84 +71 +86 опасность
перегрева
1000.3 999.5
09 12.06 Ю 0 4000 м 6/5 1000 м
[Sc diur, vesp Ac trans]
+36.2 +32.9 83 +75 +83 опасность
перегрева
998.7 997.9
12 12.06 ЮВ 0 4000 м 4/4 600 м
[St]
+34.2 +31.3 85 +66 +67 опасность
перегрева
997.9 997.1 +36.9
03 13.06 штиль 0 4000 м 8/4 1000 м
[Sc Ac trans Cs]
+29.4 +27.5 90 +48 +54 опасность
перегрева
1002.3 1001.5 +24.8 3
06 13.06 штиль 0 4000 м 9/4 1000 м
[Sc As trans]
+33.0 +28.9 79 +56 +65 опасность
перегрева
1000.4 999.6
09 13.06 штиль 0 4000 м 8/4 1000 м
[Sc Ac trans]
+35.2 +30.9 79 +66 +72 опасность
перегрева
998.0 997.2
12 13.06 штиль 0 4000 м 5/4 1000 м
[Sc diur, vesp Ac trans]
+34.2 +29.9 78 +61 +61 опасность
перегрева
997.2 996.4 +36.0
03 14.06 штиль 0 4000 м 4/3 1000 м
[Sc diur, vesp Ac trans]
+32.6 +31.3 93 +64 +75 опасность
перегрева
998.6 997.8 +29.8
06 14.06 штиль 0 4000 м ясно +37.0 +33.3 81 +77 +107 опасность
перегрева
998.5 997.7
09 14.06 ЮВ 0 4000 м ясно +37.4 +34.3 84 +83 +100 опасность
перегрева
996.0 995.2
12 14.06 Ю 0 4000 м 4/3 1000 м
[Sc diur, vesp Ac trans]
+35.0 +31.8 84 +69 +70 опасность
перегрева
996.2 995.4 +38.4
03 15.06 штиль 0 4000 м 10/6 600 м
[Sc Ac trans]
+30.8 +29.7 94 +56 +58 опасность
перегрева
999.9 999.1 +26.2 16
06 15.06 штиль 0 50 км ?/? +30.6 +29.5 94 +55 +55 опасность
перегрева
1000.1 999.3
09 15.06 Ю 0 4000 м 9/6 600 м
[Sc Ac trans]
+32.0 +30.1 90 +59 +63 опасность
перегрева
997.6 996.8
12 15.06 Ю 0 4000 м 9/5 1000 м
[Sc diur, vesp Ac trans]
+31.6 +30.6 94 +60 +60 опасность
перегрева
998.0 997.2 +32.6
03 16.06 штиль 0 4000 м 1/1 1000 м
[Sc diur, vesp]
+31.6 +29.2 87 +55 +70 опасность
перегрева
999.7 998.9 +28.8
06 16.06 Ю 0 4000 м ясно +35.8 +33.0 86 +76 +106 опасность
перегрева
999.7 998.9
09 16.06 Ю 0 4000 м 5/4 1000 м
[Sc diur, vesp Ac trans]
+34.4 +31.8 86 +68 +78 опасность
перегрева
998.7 997.9
12 16.06 Ю 0 4000 м 4/3 1000 м
[Sc diur, vesp Ac trans]
+32.4 +30.4 89 +60 +61 опасность
перегрева
997.3 996.5 +37.0
03 17.06 штиль 0 4000 м 9/6 1000 м
[Sc diur, vesp Ac trans]
+32.4 +30.9 92 +62 +66 опасность
перегрева
999.4 998.6 +30.0
06 17.06 штиль 0 4000 м 9/6 1000 м
[Sc diur, vesp Ac trans]
+33.0 +31.4 91 +65 +71 опасность
перегрева
999.6 998.8
09 17.06 штиль 0 4000 м 10/6 600 м
[Sc diur, vesp Ac trans]
+33.0 +31.7 93 +66 +69 опасность
перегрева
998.5 997.7
12 17.06 Ю 0 4000 м 3/3 1000 м
[Sc diur, vesp]
+33.0 +31.4 91 +65 +66 опасность
перегрева
997.4 996.6 +34.1

 

Местоположение метеостанции Даймонд Харбор (Западная Бенгалия, Индия): широта 22.18 долгота 88.20 высота над уровнем моря 7 м.

В архиве по умолчанию представлена погода в Даймонд Харбор за последнюю неделю. Архивные данные за месяц целиком и за предыдущие месяцы, начиная с января 2011 года, Вы можете получить, выбрав интересующий диапазон дат из раскрывающегося списка и нажав кнопку "Ввод!".


*Определитесь, кто Вы:
робот инопланетянин человек

Внимание! Время в таблицах - всемирное. Для получения местного времени необходимо прибавить поправку, которая равна 5.5 ч.

Смотрите также архив погоды в соседних городах и на ближайших метеорологических станциях:

Погода в Халдии (Западная Бенгалия, Индия) (23 км)
Погода в Колкате (Западная Бенгалия, Индия) (41 км)
Погода в Улуберии (Западная Бенгалия, Индия) (44 км)
Погода в Каннинге (Западная Бенгалия, Индия) (49 км)
Погода в Колката аэропорту (Западная Бенгалия, Индия) (58 км)
Погода в Контае (Западная Бенгалия, Индия) (64 км)
Погода в Бейсирхэте (Западная Бенгалия, Индия) (86 км)
Погода в Багати (Западная Бенгалия, Индия) (91 км)
Погода в Миднапуре (Западная Бенгалия, Индия) (94 км)
Погода в Диге (Западная Бенгалия, Индия) (95 км)

Пояснения к столбцам:

Ветер - указаны скорость ветра в м/с - средняя за 10 мин, порывы в срок и между сроками (в фигурных скобках) и направление, откуда дует ветер: С - северный, СВ - северо-восточный, В - восточный, ЮВ - юго-восточный, Ю - южный, ЮЗ - юго-западный, З - западный, СЗ - северо-западный.
Видимость - горизонтальная дальность видимости в метрах или километрах. При видимости от 1 до 10 км при отсутствии осадков обычно наблюдается дымка, при ухудшении видимости до 1 км и менее - туман. В сухую погоду видимость может ухудшаться дымом, пылью или мглою.
Явления - указаны атмосферные явления, наблюдавшиеся в срок или в последний час перед сроком; фигурными скобками обозначены явления, наблюдавшиеся между сроками (за 1-3 часа до срока); квадратными скобками обозначены град или гололедные отложения с указанием их диаметра в мм.
Облачность - указаны через наклонную черту общая и нижняя облачность в баллах и высота нижней границы облаков в метрах; квадратными скобками обозначены формы облаков: Ci - перистые, Cs - перисто-слоистые, Cc - перисто-кучевые, Ac - высококучевые, As - высокослоистые, Sc - слоисто-кучевые, Ns - слоисто-дождевые, Cu - кучевые, Cb - кучево-дождевые. Подробнее классификацию облаков см. в Атласе облаков (PDF).
T - Температура воздуха - температура, измеренная на высоте 2 м над землей.
Td - Температура точки росы - температура, при понижении до которой содержащийся в воздухе водяной пар достигнет насыщения.
f - Относительная влажность воздуха - влажноcть воздуха, измеренная на высоте 2 м над землей.
Te - Эффективная температура - температура, которую ощущает одетый по сезону человек в тени. Характеристика душности погоды. При расчете учитывается влияние влажности воздуха и скорости ветра на теплоощущения человека.
Tes - Эффективная температура на солнце - температура, которую ощущает человек, с поправкой на солнечный нагрев. Характеристика знойности погоды. Зависит от высоты солнца над горизонтом, облачности и скорости ветра. Ночью, в пасмурную погоду, а также при ветре 12 м/с и более поправка равна нулю.
P - Атмосферное давление - приведенное к уровню моря атмосферное давление.
Po - Атмосферное давление - измеренное на уровне метеостанции атмосферное давление.
Tmin - Минимальная температура - минимум температуры воздуха на высоте 2 м над землей.
Tmax - Максимальная температура - максимум температуры воздуха на высоте 2 м над землей.
R - Количество осадков - Количество выпавших осадков за период времени, мм. При наведении курсора мыши на число - период времени, за который выпало указанное количество осадков.
R24 - Количество осадков - Количество выпавших осадков за 24 часа, мм.
S - Снежный покров - Высота снежного покрова, см. При наведении курсора мыши на число - состояние снежного покрова и степень покрытия местности в баллах.